AIB280 KSEA-KEUG

Flight info

Callsign AIB280
Flight time 0h 49m
Altitude 29000
Route HAROB6 FEPOT CVO
Aircraft A359/H-SDE2E3GHIJ3J4J5LM1ORWXY/LB1D1

Departure

Time 2026-05-04 07:06
Airport Seattle–Tacoma International Airport (KSEA)

Arrival

Time 2026-05-04 07:55
Airport Eugene Airport (KEUG)
Time Latitude Longitude Altitude Speed Heading
2026-05-04 06:54 47.44164 -122.30474 395 ft 0 kts 91°
2026-05-04 06:57 47.44170 -122.30559 388 ft 4 kts 172°
2026-05-04 06:58 47.44160 -122.30556 389 ft 0 kts 171°
2026-05-04 07:01 47.44156 -122.30555 394 ft 3 kts 171°
2026-05-04 07:01 47.44079 -122.30547 392 ft 16 kts 177°
2026-05-04 07:02 47.44000 -122.30578 391 ft 6 kts 239°
2026-05-04 07:02 47.43948 -122.30634 389 ft 14 kts 193°
2026-05-04 07:02 47.43813 -122.30639 384 ft 25 kts 179°
2026-05-04 07:02 47.43655 -122.30634 379 ft 8 kts 166°
2026-05-04 07:03 47.43579 -122.30586 377 ft 16 kts 154°
2026-05-04 07:03 47.43436 -122.30561 375 ft 26 kts 179°
2026-05-04 07:03 47.43253 -122.30567 369 ft 21 kts 189°
2026-05-04 07:03 47.43182 -122.30643 371 ft 0 kts 247°
2026-05-04 07:04 47.43180 -122.30655 373 ft 4 kts 256°
2026-05-04 07:04 47.43189 -122.30763 370 ft 14 kts 307°
2026-05-04 07:05 47.43291 -122.30804 371 ft 19 kts
2026-05-04 07:05 47.43521 -122.30801 374 ft 64 kts
2026-05-04 07:05 47.44220 -122.30796 397 ft 134 kts
2026-05-04 07:05 47.45318 -122.30773 755 ft 165 kts
2026-05-04 07:06 47.47712 -122.30720 2012 ft 198 kts
2026-05-04 07:06 47.49185 -122.30699 2358 ft 230 kts
2026-05-04 07:06 47.50837 -122.30685 3092 ft 242 kts 359°
2026-05-04 07:07 47.52542 -122.30777 3971 ft 249 kts 357°
2026-05-04 07:08 47.61555 -122.42419 10419 ft 297 kts 279°
2026-05-04 07:09 47.61612 -122.45595 10875 ft 322 kts 262°
2026-05-04 07:09 47.60744 -122.48721 11486 ft 338 kts 234°
2026-05-04 07:09 47.59191 -122.51322 12350 ft 345 kts 226°
2026-05-04 07:09 47.57484 -122.53878 13243 ft 351 kts 226°
2026-05-04 07:10 47.55755 -122.56474 14122 ft 357 kts 226°
2026-05-04 07:10 47.54005 -122.59121 14933 ft 362 kts 226°
2026-05-04 07:12 47.41093 -122.78760 20284 ft 400 kts 227°
2026-05-04 07:12 47.39125 -122.81745 21003 ft 406 kts 227°
2026-05-04 07:12 47.37140 -122.84752 21715 ft 412 kts 227°
2026-05-04 07:12 47.35128 -122.87798 22451 ft 417 kts 227°
2026-05-04 07:13 47.33115 -122.90841 23158 ft 423 kts 226°
2026-05-04 07:13 47.31042 -122.93972 23780 ft 428 kts 226°
2026-05-04 07:13 47.28948 -122.97131 24376 ft 433 kts 226°
2026-05-04 07:14 47.19741 -123.09166 26757 ft 453 kts 217°
2026-05-04 07:14 47.17200 -123.11937 27339 ft 457 kts 217°
2026-05-04 07:15 47.14626 -123.14745 27901 ft 463 kts 216°
2026-05-04 07:15 47.12033 -123.17575 28445 ft 467 kts 216°
2026-05-04 07:15 47.09344 -123.20308 28881 ft 471 kts 208°
2026-05-04 07:15 47.06343 -123.22078 28987 ft 457 kts 191°
2026-05-04 07:16 47.03311 -123.22740 28981 ft 437 kts 181°
2026-05-04 07:16 47.00324 -123.22859 28983 ft 424 kts 176°
2026-05-04 07:16 46.94427 -123.22632 28985 ft 424 kts 175°
2026-05-04 07:17 46.88529 -123.22524 28986 ft 424 kts 177°
2026-05-04 07:17 46.82618 -123.22628 28984 ft 425 kts 178°
2026-05-04 07:18 46.76693 -123.22814 28984 ft 425 kts 178°
2026-05-04 07:18 46.70772 -123.23005 28984 ft 426 kts 178°
2026-05-04 07:19 46.64840 -123.23189 28982 ft 426 kts 178°
2026-05-04 07:19 46.58942 -123.23366 28981 ft 426 kts 178°
2026-05-04 07:20 46.53015 -123.23543 28981 ft 426 kts 178°
2026-05-04 07:20 46.47084 -123.23718 28976 ft 425 kts 178°
2026-05-04 07:22 46.23505 -123.24416 28974 ft 423 kts 178°
2026-05-04 07:23 46.17617 -123.24590 28975 ft 422 kts 178°
2026-05-04 07:23 46.14728 -123.24677 28925 ft 409 kts 178°
2026-05-04 07:23 46.11953 -123.24761 28871 ft 396 kts 178°
2026-05-04 07:24 46.09247 -123.24843 28865 ft 381 kts 178°
2026-05-04 07:24 46.06640 -123.24922 28859 ft 367 kts 178°
2026-05-04 07:24 46.04139 -123.24997 28859 ft 353 kts 177°
2026-05-04 07:24 46.01727 -123.25068 28857 ft 339 kts 177°
2026-05-04 07:25 45.99421 -123.25136 28856 ft 324 kts 177°
2026-05-04 07:26 45.84373 -123.25560 28849 ft 308 kts 177°
2026-05-04 07:27 45.80093 -123.25684 28849 ft 307 kts 176°
2026-05-04 07:27 45.75819 -123.25808 28848 ft 306 kts 176°
2026-05-04 07:28 45.71572 -123.25930 28831 ft 301 kts 176°
2026-05-04 07:28 45.70198 -123.25973 28746 ft 295 kts 176°
2026-05-04 07:28 45.68180 -123.26035 28544 ft 286 kts 176°
2026-05-04 07:29 45.66203 -123.26093 28249 ft 282 kts 176°
2026-05-04 07:29 45.63627 -123.26165 27816 ft 278 kts 176°
2026-05-04 07:29 45.61705 -123.26219 27489 ft 275 kts 176°
2026-05-04 07:29 45.60438 -123.26255 27267 ft 273 kts 176°
2026-05-04 07:30 45.58526 -123.26310 26929 ft 270 kts 176°
2026-05-04 07:30 45.56676 -123.26362 26614 ft 268 kts 176°
2026-05-04 07:30 45.54820 -123.26415 26312 ft 265 kts 176°
2026-05-04 07:30 45.52982 -123.26468 25987 ft 262 kts 177°
2026-05-04 07:31 45.51167 -123.26519 25677 ft 260 kts 177°
2026-05-04 07:31 45.49365 -123.26571 25371 ft 258 kts 177°
2026-05-04 07:33 45.37198 -123.26917 23209 ft 243 kts 178°
2026-05-04 07:33 45.35513 -123.26966 22860 ft 241 kts 178°
2026-05-04 07:33 45.33839 -123.27013 22514 ft 239 kts 178°
2026-05-04 07:33 45.32181 -123.27061 22166 ft 237 kts 178°
2026-05-04 07:34 45.30537 -123.27107 21826 ft 235 kts 178°
2026-05-04 07:34 45.28906 -123.27154 21479 ft 234 kts 178°
2026-05-04 07:34 45.27302 -123.27199 21162 ft 232 kts 178°
2026-05-04 07:34 45.25695 -123.27245 20832 ft 230 kts 178°
2026-05-04 07:35 45.24096 -123.27290 20510 ft 229 kts 178°
2026-05-04 07:35 45.22511 -123.27335 20185 ft 227 kts 178°
2026-05-04 07:35 45.20933 -123.27380 19871 ft 226 kts 178°
2026-05-04 07:35 45.19361 -123.27424 19563 ft 225 kts 178°
2026-05-04 07:36 45.17799 -123.27469 19248 ft 223 kts 178°
2026-05-04 07:36 45.16254 -123.27512 18946 ft 222 kts 178°
2026-05-04 07:38 45.05697 -123.27810 16748 ft 210 kts 178°
2026-05-04 07:38 45.04237 -123.27851 16432 ft 209 kts 179°
2026-05-04 07:38 45.02809 -123.27891 16117 ft 207 kts 179°
2026-05-04 07:38 45.01369 -123.27931 15814 ft 206 kts 179°
2026-05-04 07:39 44.99944 -123.27971 15514 ft 204 kts 179°
2026-05-04 07:39 44.98531 -123.28011 15218 ft 202 kts 180°
2026-05-04 07:39 44.97126 -123.28050 14789 ft 205 kts 180°
2026-05-04 07:39 44.95670 -123.28090 14201 ft 214 kts 180°
2026-05-04 07:40 44.94149 -123.28131 13634 ft 221 kts 181°
2026-05-04 07:40 44.92631 -123.28174 13331 ft 211 kts 181°
2026-05-04 07:40 44.91242 -123.28214 13172 ft 195 kts 181°
2026-05-04 07:40 44.89901 -123.28253 12789 ft 191 kts 181°
2026-05-04 07:41 44.88575 -123.28290 12392 ft 190 kts 181°
2026-05-04 07:41 44.87262 -123.28327 11996 ft 188 kts 181°
2026-05-04 07:41 44.85962 -123.28364 11618 ft 185 kts 181°
2026-05-04 07:41 44.84677 -123.28400 11240 ft 184 kts 181°
2026-05-04 07:42 44.83425 -123.28435 10975 ft 175 kts 181°
2026-05-04 07:42 44.82234 -123.28469 10735 ft 167 kts 181°
2026-05-04 07:42 44.81073 -123.28501 10596 ft 166 kts 181°
2026-05-04 07:42 44.79916 -123.28534 10442 ft 166 kts 181°
2026-05-04 07:43 44.78772 -123.28565 10312 ft 166 kts 181°
2026-05-04 07:43 44.77618 -123.28598 10191 ft 165 kts 181°
2026-05-04 07:43 44.76470 -123.28630 10070 ft 165 kts 181°
2026-05-04 07:43 44.75325 -123.28662 9913 ft 164 kts 181°
2026-05-04 07:44 44.74175 -123.28694 9814 ft 174 kts 181°
2026-05-04 07:44 44.72854 -123.28730 9813 ft 199 kts 181°
2026-05-04 07:44 44.71531 -123.28767 9723 ft 185 kts 180°
2026-05-04 07:44 44.70269 -123.28803 9562 ft 174 kts 180°
2026-05-04 07:45 44.69081 -123.28837 9289 ft 172 kts 180°
2026-05-04 07:45 44.67886 -123.28870 8989 ft 171 kts 180°
2026-05-04 07:45 44.66691 -123.28903 8702 ft 171 kts 180°
2026-05-04 07:45 44.65504 -123.28937 8407 ft 170 kts 180°
2026-05-04 07:46 44.64328 -123.28969 8242 ft 172 kts 180°
2026-05-04 07:46 44.63027 -123.29002 8250 ft 199 kts 180°
2026-05-04 07:46 44.61641 -123.29041 8196 ft 193 kts 180°
2026-05-04 07:46 44.60282 -123.29080 7744 ft 200 kts 179°
2026-05-04 07:47 44.58746 -123.29118 7583 ft 246 kts 180°
2026-05-04 07:47 44.56957 -123.29165 7570 ft 256 kts 180°
2026-05-04 07:47 44.55196 -123.29217 7129 ft 259 kts 180°
2026-05-04 07:49 44.42670 -123.23300 4520 ft 280 kts 148°
2026-05-04 07:49 44.40863 -123.22387 4159 ft 281 kts 171°
2026-05-04 07:49 44.38918 -123.22227 3796 ft 279 kts 179°
2026-05-04 07:50 44.36953 -123.22219 3437 ft 277 kts 179°
2026-05-04 07:50 44.35068 -123.22211 3186 ft 270 kts 179°
2026-05-04 07:50 44.33245 -123.22195 3088 ft 255 kts 179°
2026-05-04 07:50 44.31518 -123.22176 2980 ft 242 kts 179°
2026-05-04 07:51 44.29875 -123.22156 2911 ft 228 kts 179°
2026-05-04 07:51 44.28339 -123.22135 2913 ft 212 kts 179°
2026-05-04 07:51 44.26913 -123.22115 2917 ft 200 kts 179°
2026-05-04 07:51 44.25528 -123.22089 2869 ft 198 kts 178°
2026-05-04 07:52 44.24149 -123.22066 2529 ft 200 kts 180°
2026-05-04 07:52 44.22768 -123.22051 2228 ft 193 kts 180°
2026-05-04 07:52 44.21484 -123.22030 1961 ft 176 kts 181°
2026-05-04 07:52 44.20323 -123.22016 1726 ft 158 kts 181°
2026-05-04 07:53 44.19273 -123.22001 1523 ft 144 kts 181°
2026-05-04 07:54 44.13217 -123.21913 387 ft 116 kts 182°
2026-05-04 07:55 44.12528 -123.21904 374 ft 67 kts 179°
2026-05-04 07:55 44.12167 -123.21897 376 ft 47 kts 179°
2026-05-04 07:55 44.11875 -123.21895 374 ft 40 kts 179°
2026-05-04 07:55 44.11613 -123.21892 373 ft 37 kts 179°
2026-05-04 07:56 44.11411 -123.21883 373 ft 0 kts 175°
2026-05-04 07:58 44.11382 -123.21862 373 ft 15 kts 135°
2026-05-04 07:58 44.11381 -123.21697 376 ft 1 kts 30°
2026-05-04 07:59 44.11385 -123.21696 377 ft 0 kts 18°
2026-05-04 08:04 44.11386 -123.21697 361 ft 0 kts 11°
2026-05-04 08:04 44.11387 -123.21697 361 ft 0 kts
2026-05-04 08:05 44.11420 -123.21695 372 ft 28 kts
2026-05-04 08:05 44.11922 -123.21702 375 ft 113 kts 359°
2026-05-04 08:05 44.12955 -123.21728 439 ft 176 kts 357°
2026-05-04 08:05 44.14178 -123.21797 1321 ft 174 kts 355°
2026-05-04 08:06 44.15358 -123.22061 2157 ft 178 kts 335°
2026-05-04 08:06 44.16349 -123.23265 2501 ft 208 kts 299°
2026-05-04 08:06 44.16624 -123.25363 2826 ft 240 kts 260°
2026-05-04 08:06 44.15801 -123.27461 3421 ft 259 kts 223°
2026-05-04 08:08 44.03425 -123.23078 9908 ft 289 kts 180°
2026-05-04 08:08 44.01381 -123.23247 10649 ft 305 kts 185°
2026-05-04 08:10 43.81911 -123.26476 16700 ft 377 kts 184°
2026-05-04 08:11 43.79285 -123.26833 17478 ft 382 kts 184°
2026-05-04 08:11 43.73911 -123.27569 18973 ft 393 kts 184°
2026-05-04 08:11 43.71238 -123.27937 19677 ft 398 kts 184°
2026-05-04 08:12 43.68402 -123.28328 20441 ft 403 kts 183°
2026-05-04 08:12 43.65598 -123.28715 21177 ft 408 kts 183°
2026-05-04 08:12 43.62759 -123.29108 21917 ft 413 kts 183°
2026-05-04 08:12 43.59881 -123.29506 22650 ft 418 kts 182°
2026-05-04 08:13 43.56972 -123.29915 23374 ft 423 kts 182°
2026-05-04 08:13 43.54022 -123.30348 24004 ft 428 kts 182°
2026-05-04 08:13 43.51073 -123.30781 24606 ft 433 kts 182°
2026-05-04 08:13 43.48060 -123.31211 25207 ft 437 kts 182°
2026-05-04 08:14 43.45019 -123.31634 25831 ft 441 kts 182°
2026-05-04 08:14 43.41942 -123.32054 26437 ft 445 kts 182°
2026-05-04 08:14 43.38849 -123.32470 27048 ft 449 kts 182°
2026-05-04 08:16 43.17508 -123.35021 30704 ft 470 kts 173°
2026-05-04 08:16 43.14229 -123.34788 31149 ft 472 kts 172°
2026-05-04 08:16 43.10932 -123.34490 31604 ft 475 kts 172°
2026-05-04 08:17 43.07629 -123.34178 32054 ft 478 kts 172°
2026-05-04 08:17 43.04343 -123.33863 32492 ft 480 kts 172°
2026-05-04 08:17 43.00993 -123.33541 32916 ft 483 kts 172°
2026-05-04 08:17 42.97622 -123.33216 33306 ft 486 kts 172°
2026-05-04 08:19 42.73604 -123.30900 35758 ft 497 kts 172°
2026-05-04 08:19 42.70151 -123.30568 36115 ft 498 kts 172°
2026-05-04 08:20 42.66698 -123.30237 36462 ft 498 kts 172°
2026-05-04 08:20 42.63238 -123.29905 36892 ft 497 kts 172°
2026-05-04 08:20 42.59836 -123.29580 37261 ft 496 kts 172°
2026-05-04 08:20 42.56392 -123.29250 37593 ft 497 kts 172°
2026-05-04 08:21 42.52931 -123.28919 37932 ft 497 kts 172°
2026-05-04 08:21 42.49477 -123.28590 38262 ft 497 kts 172°
2026-05-04 08:21 42.46023 -123.28260 38597 ft 497 kts 172°
2026-05-04 08:21 42.42577 -123.27932 38889 ft 496 kts 172°
2026-05-04 08:22 42.39132 -123.27604 39121 ft 496 kts 173°
2026-05-04 08:22 42.35732 -123.27281 39364 ft 496 kts 173°
2026-05-04 08:24 42.11648 -123.25002 41044 ft 494 kts 174°
2026-05-04 08:24 42.08261 -123.24683 41230 ft 494 kts 174°
2026-05-04 08:24 42.04829 -123.24360 41443 ft 494 kts 174°
2026-05-04 08:24 42.01404 -123.24038 41718 ft 493 kts 174°
2026-05-04 08:25 41.97982 -123.23716 41898 ft 493 kts 174°
2026-05-04 08:25 41.94546 -123.23394 41926 ft 496 kts 174°
2026-05-04 08:25 41.87646 -123.22747 41932 ft 497 kts 174°
2026-05-04 08:27 41.60081 -123.20179 41956 ft 497 kts 174°
2026-05-04 08:28 41.53167 -123.19539 41964 ft 497 kts 174°
2026-05-04 08:28 41.46268 -123.18901 41979 ft 497 kts 175°
2026-05-04 08:29 41.39362 -123.18263 41973 ft 497 kts 174°
2026-05-04 08:31 41.11739 -123.15728 41987 ft 497 kts 175°
2026-05-04 08:33 40.84282 -123.13230 41972 ft 491 kts 175°
2026-05-04 08:35 40.57152 -123.10780 41967 ft 488 kts 175°
2026-05-04 08:35 40.50369 -123.10171 41966 ft 488 kts 175°
2026-05-04 08:37 40.26686 -123.08054 41971 ft 488 kts 175°
2026-05-04 08:38 40.19906 -123.07450 41976 ft 488 kts 175°
2026-05-04 08:38 40.13121 -123.06847 41978 ft 488 kts 176°
2026-05-04 08:40 39.86005 -123.04451 41983 ft 488 kts 176°
2026-05-04 08:41 39.79217 -123.03854 41980 ft 488 kts 176°
2026-05-04 08:41 39.72468 -123.03262 41984 ft 488 kts 176°
2026-05-04 08:42 39.65680 -123.02667 41989 ft 488 kts 176°
2026-05-04 08:42 39.58893 -123.02074 41991 ft 488 kts 177°
2026-05-04 08:43 39.52114 -123.01483 41991 ft 487 kts 177°
2026-05-04 08:43 39.45344 -123.00893 41992 ft 487 kts 177°
2026-05-04 08:44 39.38578 -123.00305 41990 ft 487 kts 177°
2026-05-04 08:46 39.11680 -122.97978 42013 ft 483 kts 177°
2026-05-04 08:46 39.04965 -122.97401 42012 ft 483 kts 177°
2026-05-04 08:47 38.98295 -122.96828 42008 ft 483 kts 177°
2026-05-04 08:47 38.91583 -122.96252 42006 ft 483 kts 177°
2026-05-04 08:48 38.84901 -122.95155 42000 ft 485 kts 169°
2026-05-04 08:48 38.78318 -122.93207 42000 ft 485 kts 168°
2026-05-04 08:49 38.71742 -122.91246 42000 ft 485 kts 168°
2026-05-04 08:50 38.48762 -122.84463 42021 ft 484 kts 169°
2026-05-04 08:51 38.42175 -122.82526 42029 ft 484 kts 169°
2026-05-04 08:51 38.35609 -122.80600 42010 ft 484 kts 169°
2026-05-04 08:52 38.29030 -122.78673 42016 ft 484 kts 169°
2026-05-04 08:52 38.22464 -122.76756 42022 ft 484 kts 169°
2026-05-04 08:54 37.96261 -122.69151 42015 ft 482 kts 170°
2026-05-04 08:55 37.89815 -122.67003 42024 ft 487 kts 159°
2026-05-04 08:55 37.86905 -122.64783 42026 ft 492 kts 143°
2026-05-04 08:55 37.84322 -122.61925 42023 ft 494 kts 140°
2026-05-04 09:01 37.33730 -122.13162 42042 ft 449 kts 232°
2026-05-04 09:01 37.32596 -122.15324 42034 ft 449 kts 243°
2026-05-04 09:01 37.31556 -122.19029 42038 ft 451 kts 258°
2026-05-04 09:01 37.31408 -122.22972 42023 ft 456 kts 274°
2026-05-04 09:02 37.32166 -122.26853 42028 ft 464 kts 289°
2026-05-04 09:02 37.33787 -122.30383 42033 ft 473 kts 304°
2026-05-04 09:02 37.37074 -122.34047 42036 ft 486 kts 325°
2026-05-04 09:03 37.42507 -122.36327 42037 ft 503 kts 351°
2026-05-04 09:03 37.46034 -122.36206 42044 ft 512 kts
2026-05-04 09:03 37.49457 -122.34952 42039 ft 517 kts 22°
2026-05-04 09:03 37.52537 -122.32684 42045 ft 521 kts 35°
2026-05-04 09:04 37.55666 -122.30300 42044 ft 519 kts 21°
2026-05-04 09:04 37.58992 -122.28923 42032 ft 513 kts
2026-05-04 09:04 37.62526 -122.28625 42031 ft 505 kts 352°
2026-05-04 09:04 37.65935 -122.29469 42032 ft 495 kts 336°
2026-05-04 09:05 37.68996 -122.31378 42048 ft 486 kts 321°
2026-05-04 09:05 37.71491 -122.34198 42048 ft 478 kts 306°
2026-05-04 09:05 37.73235 -122.37654 42030 ft 471 kts 290°
2026-05-04 09:05 37.74161 -122.41583 42030 ft 465 kts 275°
2026-05-04 09:06 37.74181 -122.45637 42030 ft 461 kts 259°
2026-05-04 09:07 37.79726 -122.71535 42022 ft 498 kts 323°
2026-05-04 09:08 37.82766 -122.73670 42020 ft 504 kts 333°
2026-05-04 09:08 37.89604 -122.75814 42019 ft 513 kts 354°
2026-05-04 09:09 37.96726 -122.74846 42021 ft 520 kts 14°
2026-05-04 09:09 38.00113 -122.73195 42025 ft 523 kts 25°
2026-05-04 09:09 38.03234 -122.70812 42024 ft 526 kts 36°
2026-05-04 09:10 38.08281 -122.64195 42029 ft 527 kts 56°
2026-05-04 09:10 38.10060 -122.60137 42026 ft 527 kts 67°
2026-05-04 09:10 38.11223 -122.55723 42032 ft 526 kts 78°
2026-05-04 09:11 38.11735 -122.46520 42029 ft 522 kts 98°
2026-05-04 09:11 38.09917 -122.37695 42025 ft 516 kts 115°
2026-05-04 09:12 38.07152 -122.29333 42026 ft 517 kts 115°
2026-05-04 09:14 37.87980 -122.06277 42023 ft 485 kts 176°
2026-05-04 09:14 37.81330 -122.06575 42036 ft 476 kts 194°
2026-05-04 09:15 37.75170 -122.09427 42029 ft 471 kts 211°
2026-05-04 09:15 37.70045 -122.14396 42026 ft 467 kts 227°
2026-05-04 09:17 37.67591 -122.48622 27714 ft 530 kts 294°
2026-05-04 09:18 37.69032 -122.52836 26015 ft 523 kts 294°
2026-05-04 09:18 37.70446 -122.56985 24711 ft 507 kts 294°
2026-05-04 09:18 37.71896 -122.60986 23154 ft 495 kts 299°
2026-05-04 09:18 37.73837 -122.64505 21651 ft 479 kts 314°
2026-05-04 09:19 37.76316 -122.67172 20204 ft 461 kts 329°
2026-05-04 09:19 37.79186 -122.68860 18626 ft 449 kts 345°
2026-05-04 09:19 37.82220 -122.69440 17021 ft 435 kts
2026-05-04 09:19 37.85213 -122.69547 15436 ft 426 kts 359°
2026-05-04 09:20 37.88143 -122.69867 13925 ft 418 kts 355°
2026-05-04 09:20 37.91005 -122.70296 12317 ft 410 kts 355°
2026-05-04 09:20 37.93814 -122.70513 10775 ft 399 kts
2026-05-04 09:20 37.96543 -122.70261 9220 ft 388 kts 11°
2026-05-04 09:21 37.99118 -122.69348 7462 ft 381 kts 25°
2026-05-04 09:21 38.01366 -122.67622 5697 ft 375 kts 41°
2026-05-04 09:21 38.03041 -122.65208 4178 ft 365 kts 57°
2026-05-04 09:21 38.04043 -122.62326 3109 ft 351 kts 75°
2026-05-04 09:22 38.04337 -122.59260 2839 ft 353 kts 91°
2026-05-04 09:22 38.03998 -122.56196 2899 ft 342 kts 107°
2026-05-04 09:22 38.03132 -122.53575 3020 ft 302 kts 121°
2026-05-04 09:22 38.01980 -122.51571 3047 ft 262 kts 134°
2026-05-04 09:23 38.00672 -122.50158 3018 ft 236 kts 155°
2026-05-04 09:23 37.99184 -122.49593 3020 ft 214 kts 171°
2026-05-04 09:23 37.97781 -122.49241 3020 ft 197 kts 171°
2026-05-04 09:23 37.96482 -122.48889 3029 ft 187 kts 170°
2026-05-04 09:25 37.88837 -122.50296 3031 ft 136 kts 209°
2026-05-04 09:25 37.88001 -122.50832 3028 ft 134 kts 210°
2026-05-04 09:26 37.87177 -122.51366 3031 ft 131 kts 210°
2026-05-04 09:26 37.86381 -122.51885 3027 ft 128 kts 210°
2026-05-04 09:26 37.85593 -122.52400 3028 ft 128 kts 210°
2026-05-04 09:26 37.84804 -122.52918 3017 ft 128 kts 210°
2026-05-04 09:27 37.83967 -122.53471 3059 ft 150 kts 210°
2026-05-04 09:27 37.83021 -122.54096 3010 ft 151 kts 210°
2026-05-04 09:27 37.82146 -122.54668 3002 ft 135 kts 210°
2026-05-04 09:27 37.81344 -122.55192 3019 ft 127 kts 210°
2026-05-04 09:28 37.80562 -122.55706 3028 ft 127 kts 210°
2026-05-04 09:28 37.79775 -122.56225 3024 ft 127 kts 210°
2026-05-04 09:28 37.78989 -122.56743 3023 ft 127 kts 210°
2026-05-04 09:28 37.78201 -122.57262 3038 ft 128 kts 210°
2026-05-04 09:29 37.77413 -122.57780 3025 ft 128 kts 210°
2026-05-04 09:29 37.76631 -122.58294 3028 ft 128 kts 210°
2026-05-04 09:29 37.75841 -122.58813 3031 ft 128 kts 210°
2026-05-04 09:29 37.75049 -122.59334 3027 ft 128 kts 210°
2026-05-04 09:30 37.74257 -122.59855 3020 ft 128 kts 210°
2026-05-04 09:30 37.73468 -122.60373 3023 ft 128 kts 210°
2026-05-04 09:30 37.72641 -122.60792 3018 ft 131 kts 193°
2026-05-04 09:30 37.71742 -122.60599 3020 ft 136 kts 155°
2026-05-04 09:31 37.71102 -122.59719 3046 ft 138 kts 121°
2026-05-04 09:31 37.70663 -122.58651 3032 ft 139 kts 119°
2026-05-04 09:31 37.70227 -122.57564 3025 ft 139 kts 119°
2026-05-04 09:31 37.69785 -122.56481 3028 ft 139 kts 120°
2026-05-04 09:32 37.69336 -122.55388 2906 ft 141 kts 120°
2026-05-04 09:32 37.68883 -122.54291 2684 ft 140 kts 120°
2026-05-04 09:34 37.65781 -122.46853 1419 ft 135 kts 119°
2026-05-04 09:34 37.65339 -122.45806 1243 ft 135 kts 117°
2026-05-04 09:34 37.64917 -122.44755 1037 ft 134 kts 118°
2026-05-04 09:34 37.64497 -122.43706 860 ft 135 kts 115°
2026-05-04 09:35 37.64066 -122.42667 655 ft 131 kts 120°
2026-05-04 09:35 37.63640 -122.41654 506 ft 131 kts 119°
2026-05-04 09:35 37.63202 -122.40649 316 ft 129 kts 117°
2026-05-04 09:35 37.62781 -122.39650 141 ft 129 kts 118°
2026-05-04 09:37 37.61768 -122.37261 27 ft 0 kts 118°